Tracking 19181 objects as of 17-Jun-2018
HD Live streaming from Space Station
objects crossing your sky now

NIMBUS 2 DEB

Track NIMBUS 2 DEB now!
10-day predictions


NORAD ID: 26669
Int'l Code: 1966-040J
Perigee: 989.6 km
Apogee: 1,062.7 km
Inclination: 100.2 °
Period: 105.5 minutes
Semi major axis: 7397 km
RCS: 0.0129 m2 (small)
Launch date: May 15, 1966
Source: United States (US)
Launch site: AIR FORCE WESTERN TEST RANGE (AFWTR)

Note: This is SATELLITE DEBRIS
aabbcc
Your satellite tracking list
Your tracking list is empty




NASA's NSSDC Master Catalog

Two Line Element Set (TLE):
1 26669U 66040J   18166.98147111 +.00000677 +00000-0 +89502-3 0  9996
2 26669 100.1572 351.8030 0049408 036.4615 118.8656 13.64593021889056
Source of the keplerian elements: AFSPC